{"data":{"norad_id":58413,"intl_designator":"2023-180M","name":"STARLINK-30931","alt_names":[],"object_type":"PAYLOAD","status":"ACTIVE","operator":null,"country":"US","launch_date":"2023-11-22","launch_site_code":"AFETR","launch_vehicle":null,"mission":null,"orbit_class":"UNKNOWN","rcs_meters":null,"size_class":null,"mass_kg":null,"dimensions":null,"purposes":["comms"],"wikipedia_slug":null,"has_3d_model":false,"image_url":null,"decayed_at":null,"tle_current":{"epoch":"2026-09-19T16:01:08.264928Z","epoch_age_seconds":218653,"freshness":"STALE","line1":"1 58413U 23180M   26262.66745677  .00000224  00000+0  17676-4 0  9999","line2":"2 58413  43.0059  25.8099 0001463 273.5229  86.5455 15.27577650157428","mean_motion":15.2757765,"eccentricity":0.0001463,"inclination_deg":43.0059,"raan_deg":25.8099,"arg_perigee_deg":273.5229,"mean_anomaly_deg":86.5455,"bstar":1.7676e-5,"rev_number":15742,"period_min":94.266893732047,"perigee_km":482.05234023876,"apogee_km":484.05992534941,"semimajor_km":6861.1931327941,"source":"CELESTRAK","updated_at":"2026-09-21T09:00:33.872056Z"}}}